El Dorado, AR

3:54 AM CDT on September 24, 2017 (GMT -0500)
South Arkansas Regional At Goodwin

Weather History for KELD - October, 2011

Change the Weather History Date:

Tuesday, October 25, 2011

  Actual Average Record
Temperature  
Mean Temperature 64 °F 61 °F  
Max Temperature 84 °F 73 °F 90 °F (1931)
Min Temperature 43 °F 49 °F 27 °F (1917)
Degree Days  
Heating Degree Days 1 6  
Month to date heating degree days 84 82  
Since 1 July heating degree days 86 94  
Cooling Degree Days 0 2  
Month to date cooling degree days 52 75  
Year to date cooling degree days 2582 2102  
Growing Degree Days 13 (Base 50)    
Moisture  
Dew Point 47 °F    
Average Humidity 66    
Maximum Humidity 100    
Minimum Humidity 31    
Precipitation  
Precipitation 0.00 in 0.17 in 2.93 in (2004)
Month to date precipitation 0.69 4.18  
Year to date precipitation 24.13 41.84  
Snow  
Snow 0.00 in - - ()
Month to date snowfall 0.0  
Since 1 July snowfall 0.0  
Since 1 September snowfall 0.0  
Snow Depth 0.00 in    
Sea Level Pressure  
Sea Level Pressure 30.11 in    
Wind  
Wind Speed 6 mph (South)    
Max Wind Speed 15 mph    
Max Gust Speed 20 mph    
Visibility 9 miles    
Events      
T = Trace of Precipitation, MM = Missing Value Source: NWS Daily Summary

Daily Weather History Graph

Daily Weather History Graph

Search for Another Location

Airport or City:

Trip Planner

Search our weather history database for the weather conditions in past years. The results will help you decide how hot, cold, wet, or windy it might be!

Date:

Astronomy

Oct. 25, 2011 Rise Set
Actual Time 7:23 AM CDT 6:26 PM CDT
Civil Twilight 6:58 AM CDT 6:51 PM CDT
Nautical Twilight 6:29 AM CDT 7:21 PM CDT
Astronomical Twilight 6:00 AM CDT 7:49 PM CDT
Moon 5:58 AM CDT (10/25) 5:28 PM CDT (10/25)
Length of Visible Light 11h 53m
Length of Day
11h 03m
Waning Crescent, 2% of the Moon is Illuminated
Oct 25
Waning Crescent
Oct 26
New
Nov 2
First Quarter
Nov 10
Full
Nov 18
Last Quarter

Hourly Weather History & Observations

Time (CDT) Temp. Heat Index Dew Point Humidity Pressure Visibility Wind Dir Wind Speed Gust Speed Precip Events Conditions
12:53 AM 48.9 °F - 48.0 °F 97% 30.18 in 10.0 mi Calm Calm - N/A   Clear
1:53 AM 48.0 °F - 46.9 °F 96% 30.17 in 9.0 mi Calm Calm - N/A   Clear
2:53 AM 46.9 °F - 46.0 °F 97% 30.17 in 10.0 mi Calm Calm - N/A   Clear
3:53 AM 46.0 °F - 45.0 °F 96% 30.17 in 10.0 mi Calm Calm - N/A   Clear
4:53 AM 45.0 °F - 45.0 °F 100% 30.17 in 4.0 mi Calm Calm - N/A   Clear
4:56 AM 44.6 °F - 44.6 °F 100% 30.18 in 0.8 mi Calm Calm - N/A   Clear
5:06 AM 44.6 °F - 44.6 °F 100% 30.18 in 2.0 mi Calm Calm - N/A   Clear
5:13 AM 44.6 °F - 44.6 °F 100% 30.18 in 10.0 mi Calm Calm - N/A   Clear
5:53 AM 45.0 °F - 44.1 °F 97% 30.18 in 10.0 mi Calm Calm - N/A   Clear
6:53 AM 44.6 °F - 44.6 °F 100% 30.19 in 10.0 mi Calm Calm - N/A   Clear
7:53 AM 46.9 °F - 46.0 °F 97% 30.19 in 10.0 mi South 3.5 mph - N/A   Clear
8:53 AM 55.0 °F - 50.0 °F 83% 30.20 in 10.0 mi SSE 6.9 mph - N/A   Clear
9:53 AM 62.1 °F - 52.0 °F 70% 30.19 in 10.0 mi SSE 10.4 mph - N/A   Clear
10:53 AM 70.0 °F - 52.0 °F 53% 30.18 in 10.0 mi SSE 8.1 mph - N/A   Clear
11:53 AM 75.0 °F - 53.1 °F 46% 30.16 in 10.0 mi South 12.7 mph - N/A   Clear
12:53 PM 79.0 °F - 53.1 °F 40% 30.12 in 10.0 mi SSE 8.1 mph - N/A   Clear
2:53 PM 82.9 °F 81.8 °F 53.1 °F 36% 30.05 in 10.0 mi South 8.1 mph - N/A   Clear
3:53 PM 82.9 °F - 52.0 °F 34% 30.03 in 10.0 mi South 10.4 mph 19.6 mph N/A   Clear
4:53 PM 82.9 °F - 48.9 °F 31% 30.01 in 10.0 mi SSW 10.4 mph 19.6 mph N/A   Clear
5:53 PM 80.1 °F - 48.0 °F 32% 30.00 in 10.0 mi South 6.9 mph - N/A   Clear
6:53 PM 73.9 °F - 46.9 °F 38% 30.00 in 10.0 mi South 3.5 mph - N/A   Clear
7:53 PM 62.6 °F - 48.2 °F 59% 30.00 in 10.0 mi Calm Calm - N/A   Clear
8:53 PM 64.0 °F - 46.0 °F 52% 30.01 in 10.0 mi SSE 4.6 mph - N/A   Clear
9:53 PM 66.0 °F - 41.0 °F 40% 30.01 in 10.0 mi South 5.8 mph - N/A   Clear
10:53 PM 66.0 °F - 42.1 °F 42% 30.01 in 10.0 mi South 6.9 mph - N/A   Clear
11:53 PM 64.9 °F - 45.0 °F 48% 30.00 in 10.0 mi South 6.9 mph - N/A   Clear